Regional Weather Roundup
Issued by NWS

Home | Current Version | Previous Version | Graphics & Text | Print | Product List | Glossary On
Versions: 1 2 3 4 5 6 7 8 9 10 11 12 13 14 15 16 17 18 19 20 21 22 23 24 25 26 27 28 29 30 31 32 33 34 35 36 37 38 39 40 41 42 43 44 45 46 47 48 49 50
000
ASUS43 KBIS 040910
RWRND

NORTH DAKOTA REGIONAL WEATHER ROUNDUP
NATIONAL WEATHER SERVICE BISMARCK ND
300 AM CST SUN DEC 04 2016

NOTE: "FAIR" INDICATES FEW OR NO CLOUDS BELOW 12,000 FEET WITH NO
SIGNIFICANT WEATHER AND/OR OBSTRUCTIONS TO VISIBILITY.


NDZ001>003-009>011-017-041000-
NORTHWEST NORTH DAKOTA

CITY           SKY/WX    TMP DP  RH WIND       PRES   REMARKS
WILLISTON      LGT SNOW  33  30  88 W9        29.78R FOG
MINOT          CLOUDY    30  26  85 W13       29.71S WCI  20
MINOT AFB      CLOUDY    28  25  89 NW20      29.70S WCI  14
$$

NDZ018>021-031>035-040>046-041000-
SOUTHWEST NORTH DAKOTA

CITY           SKY/WX    TMP DP  RH WIND       PRES   REMARKS
BISMARCK       MOCLDY    34  30  85 W13       29.76F
DICKINSON      PTCLDY    24  21  88 W10       29.77R WCI  14
GARRISON         N/A     33  31  92 NW14      29.72S
HETTINGER ARPT CLEAR     21  17  84 NW6       29.83R WCI  13
$$

NDZ004>008-012>016-024-026-027-054-041000-
NORTHEAST NORTH DAKOTA

CITY           SKY/WX    TMP DP  RH WIND       PRES   REMARKS
GRAND FORKS    CLOUDY    34  32  92 S15       29.80F FOG
GRND FRKS AFB  CLOUDY    32  32 100 S14       29.78F
DEVILS LAKE    LGT SNOW  31  30  96 S14       29.72S FOG
$$

NDZ022-023-025-028>030-036>039-047>053-041000-
SOUTHEAST NORTH DAKOTA

CITY           SKY/WX    TMP DP  RH WIND       PRES   REMARKS
FARGO          CLOUDY    35  32  88 SE18      29.84F
JAMESTOWN      CLOUDY    31  30  96 S12       29.75F
$$





USA.gov is the U.S. government's official web portal to all federal, state and local government web resources and services.